• In Belgium
  • List of Countries
  • For 7 days
  • Water Temperature
  • Satellite Maps
  • Weather Map
  • Weather Widgets
  • user-avatar
    Login

    Hourly Weather Skelleftea

    Today, 20 April, Friday

    Time Temperature Precipitation Wind Pressure Humidity
    00:00 +4°C° 0.1 mm 3 mps 759 mmHg 93%
    01:00 +5°C° 0 mm 3 mps 758 mmHg 89%
    02:00 +7°C° 0.7 mm 3 mps 757 mmHg 90%
    03:00 +7°C° 0.7 mm 3 mps 756 mmHg 90%
    04:00 +7°C° 0.7 mm 2 mps 756 mmHg 90%
    05:00 +8°C° 0.3 mm 3 mps 755 mmHg 88%
    06:00 +8°C° 0.3 mm 3 mps 754 mmHg 86%
    07:00 +7°C° 0 mm 4 mps 754 mmHg 81%
    08:00 +10°C° 0 mm 4 mps 754 mmHg 74%
    09:00 +11°C° 0 mm 4 mps 753 mmHg 67%
    10:00 +12°C° 0 mm 3 mps 753 mmHg 61%
    11:00 +13°C° 0 mm 3 mps 753 mmHg 58%
    12:00 +13°C° 0 mm 3 mps 752 mmHg 55%
    13:00 +12°C° 0 mm 3 mps 752 mmHg 54%
    14:00 +13°C° 0 mm 2 mps 752 mmHg 54%
    15:00 +13°C° 0 mm 2 mps 751 mmHg 54%
    16:00 +13°C° 0 mm 2 mps 751 mmHg 53%
    17:00 +12°C° 0 mm 2 mps 750 mmHg 59%
    18:00 +10°C° 0 mm 2 mps 750 mmHg 65%
    19:00 +10°C° 0 mm 1 mps 749 mmHg 71%
    20:00 +9°C° 0 mm 1 mps 749 mmHg 73%
    21:00 +8°C° 0 mm 2 mps 748 mmHg 76%
    22:00 +7°C° 0 mm 2 mps 747 mmHg 79%
    23:00 +6°C° 0 mm 2 mps 747 mmHg 81%

    Tomorrow, 21 April, Saturday

    Time Temperature Precipitation Wind Pressure Humidity
    00:00 +6°C° 0 mm 2 mps 747 mmHg 82%
    01:00 +6°C° 0 mm 2 mps 746 mmHg 84%
    02:00 +5°C° 0 mm 2 mps 746 mmHg 86%
    03:00 +4°C° 0 mm 2 mps 745 mmHg 88%
    04:00 +4°C° 0 mm 2 mps 745 mmHg 90%
    05:00 +5°C° 0 mm 2 mps 745 mmHg 85%
    06:00 +5°C° 0 mm 2 mps 745 mmHg 81%
    07:00 +6°C° 0 mm 2 mps 744 mmHg 77%
    08:00 +7°C° 0 mm 2 mps 744 mmHg 75%
    09:00 +8°C° 0 mm 2 mps 745 mmHg 73%
    10:00 +8°C° 0 mm 2 mps 745 mmHg 71%
    11:00 +8°C° 0.1 mm 2 mps 745 mmHg 73%
    12:00 +7°C° 0.1 mm 2 mps 745 mmHg 76%
    13:00 +7°C° 0.1 mm 2 mps 746 mmHg 78%
    14:00 +6°C° 0.4 mm 2 mps 746 mmHg 80%
    15:00 +5°C° 0.4 mm 2 mps 746 mmHg 83%
    16:00 +4°C° 0.4 mm 2 mps 746 mmHg 85%
    17:00 +4°C° 0.4 mm 2 mps 746 mmHg 87%
    18:00 +3°C° 0.4 mm 2 mps 747 mmHg 88%
    19:00 +3°C° 0.4 mm 2 mps 747 mmHg 90%
    20:00 +2°C° 0.2 mm 2 mps 747 mmHg 90%
    21:00 +2°C° 0.2 mm 2 mps 748 mmHg 91%
    22:00 +2°C° 0.2 mm 2 mps 748 mmHg 92%
    23:00 +1°C° 0 mm 2 mps 749 mmHg 92%

    Day after tomorrow, 22 April, Sunday

    Time Temperature Precipitation Wind Pressure Humidity
    00:00 +1°C° 0 mm 2 mps 749 mmHg 92%
    01:00 +1°C° 0 mm 2 mps 750 mmHg 93%
    02:00 -1°C° 0 mm 2 mps 751 mmHg 94%
    03:00 -1°C° 0 mm 2 mps 751 mmHg 94%
    04:00 -1°C° 0 mm 2 mps 752 mmHg 95%
    05:00 +1°C° 0 mm 2 mps 752 mmHg 91%
    06:00 +2°C° 0 mm 2 mps 753 mmHg 87%
    07:00 +3°C° 0 mm 1 mps 753 mmHg 84%
    08:00 +5°C° 0 mm 1 mps 754 mmHg 79%
    09:00 +6°C° 0 mm 1 mps 754 mmHg 74%
    10:00 +7°C° 0 mm 1 mps 754 mmHg 68%
    11:00 +7°C° 0 mm 1 mps 754 mmHg 66%
    12:00 +8°C° 0 mm 1 mps 755 mmHg 63%
    13:00 +9°C° 0 mm 1 mps 755 mmHg 61%
    14:00 +8°C° 0 mm 2 mps 755 mmHg 61%
    15:00 +7°C° 0 mm 2 mps 755 mmHg 62%
    16:00 +7°C° 0 mm 2 mps 755 mmHg 62%
    17:00 +6°C° 0 mm 2 mps 755 mmHg 66%
    18:00 +5°C° 0 mm 2 mps 755 mmHg 70%
    19:00 +4°C° 0 mm 2 mps 755 mmHg 74%
    20:00 +3°C° 0 mm 2 mps 755 mmHg 77%
    21:00 +3°C° 0 mm 2 mps 756 mmHg 79%
    22:00 +2°C° 0 mm 2 mps 756 mmHg 82%
    23:00 +2°C° 0 mm 2 mps 756 mmHg 83%

    23 April, Monday

    Time Temperature Precipitation Wind Pressure Humidity
    00:00 +1°C° 0 mm 2 mps 756 mmHg 85%
    01:00 +1°C° 0 mm 2 mps 756 mmHg 86%
    02:00 -1°C° 0 mm 2 mps 755 mmHg 85%
    03:00 -1°C° 0 mm 2 mps 755 mmHg 84%
    04:00 -1°C° 0 mm 2 mps 755 mmHg 82%
    05:00 +1°C° 0 mm 2 mps 755 mmHg 78%
    06:00 +2°C° 0 mm 2 mps 754 mmHg 74%
    07:00 +3°C° 0 mm 2 mps 754 mmHg 69%
    08:00 +3°C° 0 mm 3 mps 753 mmHg 71%
    09:00 +4°C° 0 mm 3 mps 753 mmHg 73%
    10:00 +5°C° 0 mm 4 mps 752 mmHg 74%
    11:00 +5°C° 0 mm 4 mps 752 mmHg 74%
    12:00 +6°C° 0 mm 4 mps 751 mmHg 74%
    13:00 +6°C° 0 mm 4 mps 751 mmHg 73%
    14:00 +6°C° 0 mm 4 mps 750 mmHg 73%
    15:00 +6°C° 0 mm 4 mps 750 mmHg 72%
    16:00 +6°C° 0 mm 4 mps 749 mmHg 71%
    17:00 +5°C° 0.1 mm 4 mps 749 mmHg 74%
    18:00 +5°C° 0.1 mm 4 mps 748 mmHg 77%
    19:00 +4°C° 0.1 mm 4 mps 748 mmHg 80%
    20:00 +4°C° 0.4 mm 3 mps 747 mmHg 82%
    21:00 +3°C° 0.4 mm 3 mps 747 mmHg 85%
    22:00 +3°C° 0.4 mm 3 mps 746 mmHg 87%
    23:00 +3°C° 0.4 mm 3 mps 746 mmHg 89%

    24 April, Tuesday

    Time Temperature Precipitation Wind Pressure Humidity
    00:00 +3°C° 0.4 mm 3 mps 745 mmHg 91%
    01:00 +3°C° 0.4 mm 4 mps 745 mmHg 93%
    02:00 +1°C° 0.4 mm 4 mps 744 mmHg 92%
    03:00 +1°C° 0.4 mm 4 mps 743 mmHg 91%
    04:00 +1°C° 0.4 mm 4 mps 743 mmHg 91%
    05:00 +1°C° 0.3 mm 4 mps 742 mmHg 91%
    06:00 +1°C° 0.3 mm 4 mps 742 mmHg 91%
    07:00 +1°C° 0.3 mm 4 mps 741 mmHg 91%
    08:00 +2°C° 0.5 mm 3 mps 741 mmHg 91%
    09:00 +2°C° 0.5 mm 3 mps 740 mmHg 91%
    10:00 +2°C° 0.5 mm 3 mps 740 mmHg 90%
    11:00 +2°C° 0.4 mm 3 mps 740 mmHg 91%
    12:00 +2°C° 0.4 mm 3 mps 739 mmHg 91%
    13:00 +3°C° 0.4 mm 2 mps 739 mmHg 91%
    14:00 +3°C° 0.4 mm 2 mps 739 mmHg 91%
    15:00 +4°C° 0.4 mm 2 mps 738 mmHg 90%
    16:00 +5°C° 0.4 mm 1 mps 738 mmHg 90%
    17:00 +5°C° 0.2 mm 1 mps 738 mmHg 91%
    18:00 +4°C° 0.2 mm 1 mps 737 mmHg 93%
    19:00 +4°C° 0.2 mm 1 mps 737 mmHg 94%
    20:00 +4°C° 0 mm 1 mps 737 mmHg 95%
    21:00 +3°C° 0 mm 1 mps 737 mmHg 95%
    22:00 +3°C° 0 mm 1 mps 737 mmHg 95%
    23:00 +3°C° 0 mm 1 mps 737 mmHg 95%

    25 April, Wednesday

    Time Temperature Precipitation Wind Pressure Humidity
    00:00 +3°C° 0 mm 1 mps 737 mmHg 94%
    01:00 +2°C° 0 mm 1 mps 737 mmHg 94%
    02:00 +2°C° 0 mm 1 mps 737 mmHg 94%
    03:00 +2°C° 0 mm 1 mps 737 mmHg 94%
    04:00 +1°C° 0 mm 2 mps 737 mmHg 94%
    05:00 +2°C° 0 mm 2 mps 737 mmHg 91%
    06:00 +3°C° 0 mm 2 mps 736 mmHg 88%
    07:00 +5°C° 0 mm 2 mps 736 mmHg 85%
    08:00 +6°C° 0 mm 2 mps 737 mmHg 81%
    09:00 +8°C° 0 mm 1 mps 737 mmHg 77%
    10:00 +9°C° 0 mm 1 mps 737 mmHg 74%
    11:00 +9°C° 0.1 mm 1 mps 737 mmHg 72%
    12:00 +10°C° 0.1 mm 1 mps 737 mmHg 70%
    13:00 +10°C° 0.1 mm 1 mps 737 mmHg 68%
    14:00 +10°C° 0.2 mm 1 mps 737 mmHg 69%
    15:00 +10°C° 0.2 mm 1 mps 738 mmHg 69%
    16:00 +9°C° 0.2 mm 2 mps 738 mmHg 69%
    17:00 +9°C° 0.2 mm 1 mps 738 mmHg 74%
    18:00 +9°C° 0.2 mm 1 mps 738 mmHg 79%
    19:00 +8°C° 0.2 mm 1 mps 738 mmHg 85%
    20:00 +6°C° 0.1 mm 2 mps 739 mmHg 85%
    21:00 +6°C° 0.1 mm 2 mps 739 mmHg 86%
    22:00 +5°C° 0.1 mm 2 mps 739 mmHg 86%
    23:00 +5°C° 0 mm 2 mps 740 mmHg 86%
    Show more